TimeEST,TemperatureF,Dew PointF,Humidity,Sea Level PressureIn,VisibilityMPH,Wind Direction,Wind SpeedMPH,Gust SpeedMPH,PrecipitationIn,Events,Conditions,WindDirDegrees,DateUTC
12:15 AM,55.4,50.0,82,30.30,10.0,North,9.2,-,N/A,,Clear,10,2013-01-25 05:15:00
12:35 AM,55.4,50.0,82,30.31,10.0,NNE,6.9,-,N/A,,Clear,20,2013-01-25 05:35:00
12:55 AM,53.6,50.0,88,30.31,8.0,NNE,5.8,-,N/A,,Clear,30,2013-01-25 05:55:00
1:15 AM,53.6,51.8,94,30.31,8.0,Calm,Calm,-,N/A,,Clear,0,2013-01-25 06:15:00
1:55 AM,50.0,50.0,100,30.31,6.0,Calm,Calm,-,N/A,,Clear,0,2013-01-25 06:55:00
2:15 AM,48.2,48.2,100,30.31,3.0,Calm,Calm,-,N/A,,Clear,0,2013-01-25 07:15:00
2:35 AM,48.2,48.2,100,30.31,5.0,Calm,Calm,-,N/A,,Clear,0,2013-01-25 07:35:00
2:55 AM,48.2,48.2,100,30.31,4.0,Calm,Calm,-,N/A,,Clear,0,2013-01-25 07:55:00
3:15 AM,46.4,46.4,100,30.31,4.0,Calm,Calm,-,N/A,,Clear,0,2013-01-25 08:15:00
3:35 AM,46.4,46.4,100,30.31,4.0,Calm,Calm,-,N/A,,Clear,0,2013-01-25 08:35:00
3:55 AM,46.4,46.4,100,30.31,2.0,Calm,Calm,-,N/A,,Clear,0,2013-01-25 08:55:00
4:15 AM,46.4,46.4,100,30.31,2.5,Calm,Calm,-,N/A,,Clear,0,2013-01-25 09:15:00
4:35 AM,44.6,44.6,100,30.32,3.0,Calm,Calm,-,N/A,,Clear,0,2013-01-25 09:35:00
4:55 AM,46.4,46.4,100,30.32,2.5,Calm,Calm,-,N/A,,Clear,0,2013-01-25 09:55:00
5:15 AM,44.6,44.6,100,30.32,1.8,Calm,Calm,-,N/A,,Clear,0,2013-01-25 10:15:00
5:35 AM,46.4,46.4,100,30.31,3.0,Calm,Calm,-,N/A,,Clear,0,2013-01-25 10:35:00
5:55 AM,44.6,44.6,100,30.31,1.8,Calm,Calm,-,N/A,,Clear,0,2013-01-25 10:55:00
6:15 AM,46.4,46.4,100,30.31,3.0,Calm,Calm,-,N/A,,Partly Cloudy,0,2013-01-25 11:15:00
6:35 AM,46.4,46.4,100,30.32,4.0,Calm,Calm,-,N/A,,Partly Cloudy,0,2013-01-25 11:35:00
6:50 AM,46.4,46.4,100,30.32,5.0,North,3.5,-,N/A,,Clear,360,2013-01-25 11:50:00
7:50 AM,48.2,48.2,100,30.34,7.0,North,4.6,-,N/A,,Mostly Cloudy,10,2013-01-25 12:50:00
8:50 AM,53.6,53.6,100,30.34,7.0,NNE,4.6,-,N/A,,Mostly Cloudy,30,2013-01-25 13:50:00
9:50 AM,57.2,53.6,88,30.35,7.0,NNE,8.1,-,N/A,,Mostly Cloudy,30,2013-01-25 14:50:00
10:50 AM,62.6,53.6,72,30.33,10.0,NE,3.5,-,N/A,,Scattered Clouds,40,2013-01-25 15:50:00
11:50 AM,66.2,53.6,64,30.31,10.0,Variable,5.8,-,N/A,,Partly Cloudy,0,2013-01-25 16:50:00
12:50 PM,71.6,48.2,43,30.26,10.0,South,9.2,-,N/A,,Partly Cloudy,180,2013-01-25 17:50:00
1:50 PM,71.6,46.4,41,30.22,10.0,SSW,11.5,-,N/A,,Partly Cloudy,210,2013-01-25 18:50:00
2:50 PM,71.6,46.4,41,30.20,10.0,WSW,6.9,-,N/A,,Partly Cloudy,240,2013-01-25 19:50:00
3:50 PM,71.6,46.4,41,30.19,10.0,SW,11.5,-,N/A,,Scattered Clouds,230,2013-01-25 20:50:00
5:50 PM,66.2,50.0,56,30.19,10.0,Calm,Calm,-,N/A,,Clear,0,2013-01-25 22:50:00
6:50 PM,57.2,50.0,77,30.19,10.0,Calm,Calm,-,N/A,,Clear,0,2013-01-25 23:50:00
7:50 PM,51.8,48.2,88,30.19,10.0,Calm,Calm,-,N/A,,Clear,0,2013-01-26 00:50:00
8:15 PM,50.0,48.2,94,30.20,7.0,WSW,4.6,-,N/A,,Clear,250,2013-01-26 01:15:00
8:35 PM,59.0,48.2,67,30.21,10.0,SW,5.8,-,N/A,,Clear,230,2013-01-26 01:35:00
8:55 PM,57.2,48.2,72,30.21,10.0,SW,4.6,-,N/A,,Clear,220,2013-01-26 01:55:00
9:15 PM,55.4,46.4,72,30.20,8.0,SSW,4.6,-,N/A,,Clear,210,2013-01-26 02:15:00
9:35 PM,53.6,46.4,77,30.21,5.0,SSW,3.5,-,N/A,,Haze,210,2013-01-26 02:35:00
9:55 PM,53.6,46.4,77,30.21,4.0,Calm,Calm,-,N/A,,Haze,0,2013-01-26 02:55:00
10:15 PM,57.2,46.4,67,30.21,7.0,SW,6.9,-,N/A,,Clear,230,2013-01-26 03:15:00
10:35 PM,57.2,46.4,67,30.22,7.0,SW,6.9,-,N/A,,Clear,230,2013-01-26 03:35:00
10:55 PM,57.2,48.2,72,30.22,10.0,SW,5.8,-,N/A,,Clear,230,2013-01-26 03:55:00
11:15 PM,55.4,48.2,77,30.22,5.0,SW,6.9,-,N/A,,Haze,220,2013-01-26 04:15:00
11:35 PM,55.4,48.2,77,30.22,6.0,SSW,6.9,-,N/A,,Haze,210,2013-01-26 04:35:00
11:55 PM,55.4,50.0,82,30.21,8.0,SSW,8.1,-,N/A,,Clear,210,2013-01-26 04:55:00